Find USA 486

NORAD ID: 62757 Int'l Des: 2025-014 Owner: NROC Country: US operational
LEOCIRCULAR

Live Position

Loading 3D Globe...

About USA 486

Description loading...

Upcoming Passes

Passes for default location (London). Set your location on the main map for personalized predictions.

Altitude History

Loading altitude history...

Two-Line Element Set

1 62757U 25014Y 26107.08035488 .00270568 00000-0 16068-2 0 9992
2 62757 42.9996 122.2018 0001708 240.5451 119.5249 15.76439657 71137
Epoch: Apr 17, 2026 • Age: 14 hours

Current Status

Altitude 340.1 km
Velocity 7.71 km/s
Sub-Earth Point 27.15°N, 176.7°E
Launch Date Jan 21, 2025
Age 1.2 years
Type military

Technical Details

Classification Payload
Mass 800.00 kg
Dry Mass 750.00 kg
Total Mass 800.00 kg
Length 0.30 m
Diameter 4.10 m
Span 29.00 m
Shape Box + pan
Manufacturer SPXS
Bus Type Starshield
Phase Status In Orbit
Owner/State NROC/US

Most Searched